| Back to River Map | <<< Previous Forecast Point | | | Next Forecast Point >>> | Printer Version | Graph Version |  |
|
SACRAMENTO RIVER - HAMILTON CITY (HAMC1)
| Latitude: 39.75º N | Longitude: 122.00º W | Elevation: 125 Feet | | Forecast Type: Official Location |
| Location: Glenn County in California | Bulletin Group: Upper Sacramento | River Group: Upper Sacramento |
| Issuance Time: | Sep 01 2026 at 7:17 AM PDT | Next Issuance: | Sep 02 2026 at 9:00 AM PDT
| |
| Action/Monitor: 142.0 Feet | Minor Flood: 147.0 Feet | Moderate Flood: 149.2 Feet | Major Flood: 150.2 Feet |
# Tabular Observed and Forecast Hydrograph Information
#
# Location: Sacramento River - Hamilton City (HAMC1)
#
# File Generation Time: 09/01/2026 at 07:18 AM PDT
# Data Interval: 1 Hour
#
# Most Recent Date & Time of Maximum Observed: 08/27/2026 at 03:00 PM PDT
# Maximum Observed Stage: 128.63 Feet
# Maximum Observed Flow: 6950 cfs
#
# Earliest Date & Time of Maximum Forecast: 09/04/2026 at 05:00 AM PDT
# Maximum Forecast Stage: 128.32 Feet
# Maximum Forecast Flow: 6192 cfs
#
# OBSERVED
#
# Date & Time (Local) Stage (Feet) Flow (cfs) Trend Observed Status
# ---------------------------------------------------------------------------------
08/27/2026 07 AM PDT 128.61 6901 Normal
08/27/2026 08 AM PDT 128.62 6926 + Normal
08/27/2026 09 AM PDT 128.62 6926 0 Normal
08/27/2026 10 AM PDT 128.63 6950 + Normal
08/27/2026 11 AM PDT 128.63 6950 0 Normal
08/27/2026 12 PM PDT 128.63 6950 0 Normal
08/27/2026 01 PM PDT 128.63 6950 0 Normal
08/27/2026 02 PM PDT 128.63 6950 0 Normal
08/27/2026 03 PM PDT 128.63 6950 0 Normal
08/27/2026 04 PM PDT 128.62 6926 - Normal
08/27/2026 05 PM PDT 128.61 6901 - Normal
08/27/2026 06 PM PDT 128.59 6852 - Normal
08/27/2026 07 PM PDT 128.59 6852 0 Normal
08/27/2026 08 PM PDT 128.58 6827 - Normal
08/27/2026 09 PM PDT 128.56 6778 - Normal
08/27/2026 10 PM PDT 128.58 6827 + Normal
08/27/2026 11 PM PDT 128.60 6877 + Normal
08/28/2026 12 AM PDT 128.61 6901 + Normal
08/28/2026 01 AM PDT 128.61 6901 0 Normal
08/28/2026 02 AM PDT 128.61 6901 0 Normal
08/28/2026 03 AM PDT 128.61 6901 0 Normal
08/28/2026 04 AM PDT 128.61 6901 0 Normal
08/28/2026 05 AM PDT 128.61 6901 0 Normal
08/28/2026 06 AM PDT 128.61 6901 0 Normal
08/28/2026 07 AM PDT 128.61 6901 0 Normal
08/28/2026 08 AM PDT 128.61 6901 0 Normal
08/28/2026 09 AM PDT 128.60 6877 - Normal
08/28/2026 10 AM PDT 128.61 6901 + Normal
08/28/2026 11 AM PDT 128.59 6852 - Normal
08/28/2026 12 PM PDT 128.56 6778 - Normal
08/28/2026 01 PM PDT 128.57 6803 + Normal
08/28/2026 02 PM PDT 128.55 6753 - Normal
08/28/2026 03 PM PDT 128.53 6705 - Normal
08/28/2026 04 PM PDT 128.55 6753 + Normal
08/28/2026 05 PM PDT 128.54 6729 - Normal
08/28/2026 06 PM PDT 128.53 6705 - Normal
08/28/2026 07 PM PDT 128.54 6729 + Normal
08/28/2026 08 PM PDT 128.52 6680 - Normal
08/28/2026 09 PM PDT 128.52 6680 0 Normal
08/28/2026 10 PM PDT 128.51 6656 - Normal
08/28/2026 11 PM PDT 128.49 6607 - Normal
08/29/2026 12 AM PDT 128.48 6582 - Normal
08/29/2026 01 AM PDT 128.46 6533 - Normal
08/29/2026 02 AM PDT 128.45 6509 - Normal
08/29/2026 03 AM PDT 128.44 6485 - Normal
08/29/2026 04 AM PDT 128.44 6485 0 Normal
08/29/2026 05 AM PDT 128.44 6485 0 Normal
08/29/2026 06 AM PDT 128.43 6460 - Normal
08/29/2026 07 AM PDT 128.45 6509 + Normal
08/29/2026 08 AM PDT 128.45 6509 0 Normal
08/29/2026 09 AM PDT 128.46 6533 + Normal
08/29/2026 10 AM PDT 128.47 6558 + Normal
08/29/2026 11 AM PDT 128.48 6582 + Normal
08/29/2026 12 PM PDT 128.47 6558 - Normal
08/29/2026 01 PM PDT 128.47 6558 0 Normal
08/29/2026 02 PM PDT 128.48 6582 + Normal
08/29/2026 03 PM PDT 128.48 6582 0 Normal
08/29/2026 04 PM PDT 128.48 6582 0 Normal
08/29/2026 05 PM PDT 128.47 6558 - Normal
08/29/2026 06 PM PDT 128.47 6558 0 Normal
08/29/2026 07 PM PDT 128.47 6558 0 Normal
08/29/2026 08 PM PDT 128.46 6533 - Normal
08/29/2026 09 PM PDT 128.47 6558 + Normal
08/29/2026 10 PM PDT 128.47 6558 0 Normal
08/29/2026 11 PM PDT 128.47 6558 0 Normal
08/30/2026 12 AM PDT 128.48 6582 + Normal
08/30/2026 01 AM PDT 128.48 6582 0 Normal
08/30/2026 02 AM PDT 128.48 6582 0 Normal
08/30/2026 03 AM PDT 128.49 6607 + Normal
08/30/2026 04 AM PDT 128.50 6632 + Normal
08/30/2026 05 AM PDT 128.50 6632 0 Normal
08/30/2026 06 AM PDT 128.50 6632 0 Normal
08/30/2026 07 AM PDT 128.51 6656 + Normal
08/30/2026 08 AM PDT 128.52 6680 + Normal
08/30/2026 09 AM PDT 128.53 6705 + Normal
08/30/2026 10 AM PDT 128.53 6705 0 Normal
08/30/2026 11 AM PDT 128.53 6705 0 Normal
08/30/2026 12 PM PDT 128.54 6729 + Normal
08/30/2026 01 PM PDT 128.53 6705 - Normal
08/30/2026 02 PM PDT 128.54 6729 + Normal
08/30/2026 03 PM PDT 128.53 6705 - Normal
08/30/2026 04 PM PDT 128.52 6680 - Normal
08/30/2026 05 PM PDT 128.52 6680 0 Normal
08/30/2026 06 PM PDT 128.51 6656 - Normal
08/30/2026 07 PM PDT 128.50 6632 - Normal
08/30/2026 08 PM PDT 128.49 6607 - Normal
08/30/2026 09 PM PDT 128.48 6582 - Normal
08/30/2026 10 PM PDT 128.46 6533 - Normal
08/30/2026 11 PM PDT 128.45 6509 - Normal
08/31/2026 12 AM PDT 128.44 6485 - Normal
08/31/2026 01 AM PDT 128.43 6460 - Normal
08/31/2026 02 AM PDT 128.42 6436 - Normal
08/31/2026 03 AM PDT 128.41 6412 - Normal
08/31/2026 04 AM PDT 128.40 6388 - Normal
08/31/2026 05 AM PDT 128.39 6363 - Normal
08/31/2026 06 AM PDT 128.38 6338 - Normal
08/31/2026 07 AM PDT 128.38 6338 0 Normal
08/31/2026 08 AM PDT 128.38 6338 0 Normal
08/31/2026 09 AM PDT 128.38 6338 0 Normal
08/31/2026 10 AM PDT 128.38 6338 0 Normal
08/31/2026 11 AM PDT 128.38 6338 0 Normal
08/31/2026 12 PM PDT 128.39 6363 + Normal
08/31/2026 01 PM PDT 128.38 6338 - Normal
08/31/2026 02 PM PDT 128.38 6338 0 Normal
08/31/2026 03 PM PDT 128.39 6363 + Normal
08/31/2026 04 PM PDT 128.38 6338 - Normal
08/31/2026 05 PM PDT 128.37 6314 - Normal
08/31/2026 06 PM PDT 128.39 6363 + Normal
08/31/2026 07 PM PDT 128.39 6363 0 Normal
08/31/2026 08 PM PDT 128.38 6338 - Normal
08/31/2026 09 PM PDT 128.37 6314 - Normal
08/31/2026 10 PM PDT 128.33 6216 - Normal
08/31/2026 11 PM PDT 128.32 6192 - Normal
09/01/2026 12 AM PDT 128.28 6095 - Normal
09/01/2026 01 AM PDT 128.29 6119 + Normal
09/01/2026 02 AM PDT 128.27 6070 - Normal
09/01/2026 03 AM PDT 128.26 6046 - Normal
09/01/2026 04 AM PDT 128.26 6046 0 Normal
09/01/2026 05 AM PDT 128.28 6095 + Normal
09/01/2026 06 AM PDT 128.29 6119 + Normal
09/01/2026 07 AM PDT 128.30 6144 + Normal
#
# FORECAST
#
# Date & Time (Local) Stage (Feet) Flow (cfs) Trend Forecast Status
# ---------------------------------------------------------------------------------
09/01/2026 08 AM PDT 128.30 6144 Normal
09/01/2026 09 AM PDT 128.30 6144 0 Normal
09/01/2026 10 AM PDT 128.30 6144 0 Normal
09/01/2026 11 AM PDT 128.29 6119 - Normal
09/01/2026 12 PM PDT 128.29 6119 0 Normal
09/01/2026 01 PM PDT 128.28 6095 - Normal
09/01/2026 02 PM PDT 128.27 6070 - Normal
09/01/2026 03 PM PDT 128.27 6070 0 Normal
09/01/2026 04 PM PDT 128.27 6070 0 Normal
09/01/2026 05 PM PDT 128.26 6046 - Normal
09/01/2026 06 PM PDT 128.26 6046 0 Normal
09/01/2026 07 PM PDT 128.26 6046 0 Normal
09/01/2026 08 PM PDT 128.26 6046 0 Normal
09/01/2026 09 PM PDT 128.26 6046 0 Normal
09/01/2026 10 PM PDT 128.26 6046 0 Normal
09/01/2026 11 PM PDT 128.26 6046 0 Normal
09/02/2026 12 AM PDT 128.26 6046 0 Normal
09/02/2026 01 AM PDT 128.26 6046 0 Normal
09/02/2026 02 AM PDT 128.26 6046 0 Normal
09/02/2026 03 AM PDT 128.26 6046 0 Normal
09/02/2026 04 AM PDT 128.26 6046 0 Normal
09/02/2026 05 AM PDT 128.26 6046 0 Normal
09/02/2026 06 AM PDT 128.26 6046 0 Normal
09/02/2026 07 AM PDT 128.26 6046 0 Normal
09/02/2026 08 AM PDT 128.26 6046 0 Normal
09/02/2026 09 AM PDT 128.26 6046 0 Normal
09/02/2026 10 AM PDT 128.26 6046 0 Normal
09/02/2026 11 AM PDT 128.26 6046 0 Normal
09/02/2026 12 PM PDT 128.26 6046 0 Normal
09/02/2026 01 PM PDT 128.26 6046 0 Normal
09/02/2026 02 PM PDT 128.26 6046 0 Normal
09/02/2026 03 PM PDT 128.26 6046 0 Normal
09/02/2026 04 PM PDT 128.26 6046 0 Normal
09/02/2026 05 PM PDT 128.26 6046 0 Normal
09/02/2026 06 PM PDT 128.26 6046 0 Normal
09/02/2026 07 PM PDT 128.26 6046 0 Normal
09/02/2026 08 PM PDT 128.26 6046 0 Normal
09/02/2026 09 PM PDT 128.26 6046 0 Normal
09/02/2026 10 PM PDT 128.26 6046 0 Normal
09/02/2026 11 PM PDT 128.27 6070 + Normal
09/03/2026 12 AM PDT 128.27 6070 0 Normal
09/03/2026 01 AM PDT 128.27 6070 0 Normal
09/03/2026 02 AM PDT 128.27 6070 0 Normal
09/03/2026 03 AM PDT 128.27 6070 0 Normal
09/03/2026 04 AM PDT 128.27 6070 0 Normal
09/03/2026 05 AM PDT 128.27 6070 0 Normal
09/03/2026 06 AM PDT 128.27 6070 0 Normal
09/03/2026 07 AM PDT 128.27 6070 0 Normal
09/03/2026 08 AM PDT 128.27 6070 0 Normal
09/03/2026 09 AM PDT 128.27 6070 0 Normal
09/03/2026 10 AM PDT 128.27 6070 0 Normal
09/03/2026 11 AM PDT 128.27 6070 0 Normal
09/03/2026 12 PM PDT 128.27 6070 0 Normal
09/03/2026 01 PM PDT 128.27 6070 0 Normal
09/03/2026 02 PM PDT 128.27 6070 0 Normal
09/03/2026 03 PM PDT 128.27 6070 0 Normal
09/03/2026 04 PM PDT 128.27 6070 0 Normal
09/03/2026 05 PM PDT 128.27 6070 0 Normal
09/03/2026 06 PM PDT 128.27 6070 0 Normal
09/03/2026 07 PM PDT 128.28 6095 + Normal
09/03/2026 08 PM PDT 128.28 6095 0 Normal
09/03/2026 09 PM PDT 128.28 6095 0 Normal
09/03/2026 10 PM PDT 128.28 6095 0 Normal
09/03/2026 11 PM PDT 128.29 6119 + Normal
09/04/2026 12 AM PDT 128.29 6119 0 Normal
09/04/2026 01 AM PDT 128.30 6144 + Normal
09/04/2026 02 AM PDT 128.30 6144 0 Normal
09/04/2026 03 AM PDT 128.31 6168 + Normal
09/04/2026 04 AM PDT 128.31 6168 0 Normal
09/04/2026 05 AM PDT 128.32 6192 + Normal
09/04/2026 06 AM PDT 128.32 6192 0 Normal
09/04/2026 07 AM PDT 128.32 6192 0 Normal
09/04/2026 08 AM PDT 128.32 6192 0 Normal
09/04/2026 09 AM PDT 128.32 6192 0 Normal
09/04/2026 10 AM PDT 128.32 6192 0 Normal
09/04/2026 11 AM PDT 128.32 6192 0 Normal
09/04/2026 12 PM PDT 128.32 6192 0 Normal
09/04/2026 01 PM PDT 128.32 6192 0 Normal
09/04/2026 02 PM PDT 128.32 6192 0 Normal
09/04/2026 03 PM PDT 128.32 6192 0 Normal
09/04/2026 04 PM PDT 128.32 6192 0 Normal
09/04/2026 05 PM PDT 128.32 6192 0 Normal
09/04/2026 06 PM PDT 128.32 6192 0 Normal
09/04/2026 07 PM PDT 128.32 6192 0 Normal
09/04/2026 08 PM PDT 128.32 6192 0 Normal
09/04/2026 09 PM PDT 128.32 6192 0 Normal
09/04/2026 10 PM PDT 128.32 6192 0 Normal
09/04/2026 11 PM PDT 128.32 6192 0 Normal
09/05/2026 12 AM PDT 128.32 6192 0 Normal
09/05/2026 01 AM PDT 128.32 6192 0 Normal
09/05/2026 02 AM PDT 128.32 6192 0 Normal
09/05/2026 03 AM PDT 128.31 6168 - Normal
09/05/2026 04 AM PDT 128.31 6168 0 Normal
09/05/2026 05 AM PDT 128.31 6168 0 Normal
09/05/2026 06 AM PDT 128.31 6168 0 Normal
09/05/2026 07 AM PDT 128.30 6144 - Normal
09/05/2026 08 AM PDT 128.30 6144 0 Normal
09/05/2026 09 AM PDT 128.30 6144 0 Normal
09/05/2026 10 AM PDT 128.30 6144 0 Normal
09/05/2026 11 AM PDT 128.29 6119 - Normal
09/05/2026 12 PM PDT 128.29 6119 0 Normal
09/05/2026 01 PM PDT 128.29 6119 0 Normal
09/05/2026 02 PM PDT 128.29 6119 0 Normal
09/05/2026 03 PM PDT 128.29 6119 0 Normal
09/05/2026 04 PM PDT 128.29 6119 0 Normal
09/05/2026 05 PM PDT 128.29 6119 0 Normal
09/05/2026 06 PM PDT 128.29 6119 0 Normal
09/05/2026 07 PM PDT 128.28 6095 - Normal
09/05/2026 08 PM PDT 128.28 6095 0 Normal
09/05/2026 09 PM PDT 128.28 6095 0 Normal
09/05/2026 10 PM PDT 128.28 6095 0 Normal
09/05/2026 11 PM PDT 128.28 6095 0 Normal
09/06/2026 12 AM PDT 128.28 6095 0 Normal
09/06/2026 01 AM PDT 128.28 6095 0 Normal
09/06/2026 02 AM PDT 128.28 6095 0 Normal
09/06/2026 03 AM PDT 128.28 6095 0 Normal
09/06/2026 04 AM PDT 128.28 6095 0 Normal
09/06/2026 05 AM PDT 128.28 6095 0 Normal
#
# NOTE 1: Stages are rounded to the nearest hundredth (.01) of a foot.
# NOTE 2: Flows are rounded to the nearest (1) cfs.
# NOTE 3: Trends are determined using hourly change in unrounded stage and flow.
# NOTE 4: Maximum Values are determined using unrounded stage and flow.
|